Home   Weather   Oulu   Past weeks

Flag for Finland Past Weather in Oulu, Finland — Yesterday and Last 2 Weeks

Now
50 °F

Passing clouds.


Feels Like: 49 °F
Forecast: 55 / 60 °F
Wind: 3 mph from West

Location: Oulu Airport

Current Time: Aug 31, 2016 at 7:32:01 AM

Latest Report: Aug 31, 2016 at 6:50 AM


Visibility: N/A

Pressure: 29.80 "Hg

Humidity: 100%

Dew Point: 50 °F

Location of OuluLocation

Past Weather in Oulu — Graph

°F

Oulu Temperature Yesterday

Maximum temperature yesterday: 61 °F (at 1:20 PM)
Minimum temperature yesterday: 37 °F (at 5:50 AM)
Average temperature yesterday: 51 °F

High & Low Weather Summary for the Past Weeks

 TemperatureHumidityPressure
High68 °F (Aug 18, 12:20 PM)100% (Aug 18, 4:50 AM)30.21 "Hg (Aug 18, 4:50 AM)
Low36 °F (Aug 29, 6:20 AM)44% (Aug 29, 12:20 PM)29.21 "Hg (Aug 27, 2:50 PM)
Average56 °F83%29.94 "Hg
* Reported Aug 16 6:20 AM — Aug 31 6:20 AM, Oulu, Weather by CustomWeather, © 2016

Note: Actual official high and low records may vary slightly from our data, if they occured in-between our weather recording intervals... More about our weather records

Advertising

Oulu Weather History for the Previous 24 Hours

Scroll right to see more
 ConditionsComfort  
Time TempWeatherWind HumidityBarometerVisibility
6:20 AM
Wed, Aug 31
48 °FPassing clouds.5 mph100%29.80 "HgN/A
5:50 AM48 °FClear.6 mph94%29.77 "Hg10 mi
5:20 AM48 °FClear.6 mph94%29.77 "Hg10 mi
4:50 AM46 °FClear.5 mph100%29.77 "Hg10 mi
4:20 AM46 °FClear.2 mph100%29.77 "Hg10 mi
3:50 AM48 °FClear.3 mph94%29.77 "Hg10 mi
3:20 AM50 °FClear.5 mph88%29.74 "Hg10 mi
2:50 AM50 °FClear.6 mph88%29.74 "Hg10 mi
2:20 AM48 °FClear.6 mph94%29.74 "Hg10 mi
1:50 AM50 °FPassing clouds.5 mph94%29.74 "HgN/A
1:20 AM52 °FClear.6 mph94%29.74 "Hg10 mi
12:50 AM52 °FPassing clouds.6 mph94%29.74 "HgN/A
12:20 AM54 °FPassing clouds.5 mph88%29.71 "HgN/A
11:50 PM
Tue, Aug 30
54 °FPartly cloudy.3 mph88%29.71 "HgN/A
11:20 PM54 °FPartly cloudy.5 mph88%29.71 "HgN/A
10:50 PM54 °FOvercast.5 mph88%29.71 "HgN/A
10:20 PM54 °FOvercast.5 mph88%29.71 "HgN/A
9:50 PM54 °FMostly cloudy.5 mph88%29.71 "HgN/A
9:20 PM55 °FLight rain. Mostly cloudy.5 mph82%29.71 "HgN/A
8:50 PM55 °FPartly sunny.6 mph77%29.71 "HgN/A
8:20 PM55 °FPartly sunny.5 mph82%29.68 "HgN/A
7:50 PM55 °FScattered clouds.6 mph82%29.68 "HgN/A
7:20 PM57 °FScattered clouds.9 mph77%29.68 "HgN/A
6:50 PM55 °FPartly sunny.10 mph77%29.68 "HgN/A
6:20 PM57 °FPartly sunny.9 mph77%29.68 "HgN/A
5:50 PM57 °FPartly sunny.3 mph72%29.68 "HgN/A
5:20 PM59 °FPartly sunny.8 mph63%29.71 "HgN/A
4:50 PM59 °FPassing clouds.9 mph68%29.71 "HgN/A
4:20 PM59 °FSunny.9 mph72%29.71 "Hg10 mi
3:50 PM59 °FPassing clouds.10 mph72%29.71 "HgN/A
3:20 PM59 °FBroken clouds.10 mph72%29.71 "HgN/A
2:50 PM61 °FPassing clouds.9 mph63%29.71 "HgN/A
2:20 PM61 °FScattered clouds.8 mph59%29.71 "HgN/A
1:50 PM61 °FPassing clouds.5 mph63%29.71 "HgN/A
1:20 PM61 °FPassing clouds.6 mph63%29.71 "HgN/A
12:50 PM59 °FBroken clouds.6 mph63%29.71 "HgN/A
12:20 PM59 °FPassing clouds.6 mph68%29.71 "HgN/A
11:50 AM57 °FPassing clouds.7 mph72%29.71 "HgN/A
11:20 AM57 °FPassing clouds.6 mph72%29.74 "HgN/A
10:50 AM55 °FPassing clouds.5 mph77%29.74 "HgN/A
10:20 AM55 °FPassing clouds.5 mph77%29.74 "HgN/A
9:50 AM52 °FSunny.5 mph88%29.74 "Hg10 mi
9:20 AM50 °FSunny.3 mph88%29.74 "Hg10 mi
8:50 AM48 °FSunny.5 mph87%29.74 "Hg10 mi
8:20 AM45 °FSunny.5 mph93%29.74 "Hg10 mi
7:50 AM43 °FSunny.6 mph93%29.74 "Hg10 mi
7:20 AM41 °FSunny.6 mph100%29.74 "Hg10 mi
Weather by CustomWeather, © 2016

See weather overviewHow to use our weather pages